Home > Weather > Entebbe > Past weeks

Flag for Uganda Weather for the Past 2 Weeks in Entebbe, Uganda

Now
70 °F

Passing clouds.


Feels Like: 70 °F
Forecast: 67 / 78 °F
Wind: 5 mph from North

Location: Entebbe Airport

Current Time: May 7, 2016 at 3:52:17 AM

Latest Report: May 7, 2016 at 3:00 AM


Visibility: N/A

Pressure: 30.09 "Hg (26.30 "Hg at 1160m altitude)

Humidity: 88%

Dew Point: 66 °F

Location of EntebbeLocation

Historic Weather in Entebbe — Graph

°F

Entebbe Temperature Yesterday

Maximum temperature yesterday: 77 °F (at 2:00 PM)
Minimum temperature yesterday: 68 °F (at 5:00 AM)
Average temperature yesterday: 72 °F

High & Low Weather Summary for the Past Weeks

 TemperatureHumidityPressure
High81 °F (Apr 30, 11:00 AM)100% (Apr 26, 10:00 AM)30.15 "Hg (Apr 26, 10:00 AM)
Low64 °F (Apr 26, 8:00 AM)65% (Apr 28, 12:00 PM)29.92 "Hg (Apr 24, 4:00 PM)
Average73 °F84%30.03 "Hg
* Reported Apr 22 2:00 AM — May 7 2:00 AM, Entebbe, Weather by CustomWeather, © 2016

Note: Actual official high and low records may vary slightly from our data, if they occured in-between our weather recording intervals... More about our weather records

Advertising

Entebbe Weather History for the Previous 24 Hours

Scroll right to see more
 ConditionsComfort  
Time TempWeatherWind HumidityBarometerVisibility
2:00 AM
Sat, May 7
70 °FPassing clouds.10 mph88%30.07 "HgN/A
12:00 AM70 °FPassing clouds.7 mph88%30.12 "HgN/A
11:00 PM
Fri, May 6
72 °FPassing clouds.12 mph83%30.12 "HgN/A
10:00 PM72 °FPassing clouds.6 mph83%30.09 "HgN/A
9:00 PM73 °FPassing clouds.3 mph78%30.07 "HgN/A
8:00 PM75 °FPassing clouds.3 mph74%30.07 "HgN/A
7:00 PM75 °FPassing clouds.No wind74%30.01 "HgN/A
6:00 PM77 °FPartly sunny.No wind69%30.01 "HgN/A
5:00 PM77 °FPartly sunny.6 mph69%30.01 "HgN/A
4:00 PM75 °FPartly sunny.3 mph74%30.01 "HgN/A
3:00 PM75 °FPartly sunny.6 mph78%30.04 "HgN/A
2:00 PM77 °FScattered clouds.6 mph83%30.09 "HgN/A
1:00 PM75 °FScattered clouds.6 mph78%30.12 "HgN/A
12:00 PM72 °FBroken clouds.6 mph83%30.15 "HgN/A
11:00 AM70 °FLight rain. Broken clouds.6 mph88%30.15 "HgN/A
10:00 AM68 °FThunderstorms. Mostly cloudy.2 mph94%30.15 "Hg3 mi
9:00 AM68 °FThunderstorms. Mostly cloudy.12 mph94%30.15 "Hg2 mi
8:00 AM70 °FPartly sunny.3 mph94%30.12 "Hg5 mi
7:00 AM68 °FMild.2 mph94%30.07 "Hg6 mi
6:00 AM68 °FMild.8 mph94%30.04 "Hg6 mi
5:00 AM68 °FMild.10 mph94%30.04 "Hg6 mi
4:00 AM70 °FMild.12 mph94%30.04 "HgN/A
3:00 AM70 °FPartly cloudy.12 mph94%30.04 "HgN/A
Weather by CustomWeather, © 2016

See weather overviewHow to use our weather pages